When you browse on this site, cookies collect data to enhance your experience and personalize the content and advertising you see.
Visit our Privacy Policy to learn more. By continuing to use the site, you agree to this use of cookies and data.
  • In Sweden
  • List of Countries
  • For 7 days
  • Water Temperature
  • Weather Map
  • Weather Widgets
  • user-avatar
    Login

    Hourly Weather Bandipur

    Today, 3 June, Wednesday

    Time Temperature Precipitation Wind Pressure Humidity
    00:00 +29°C° 0 mm 1 mps 739 mmHg 42%
    01:00 +28°C° 0 mm 1 mps 739 mmHg 43%
    02:00 +28°C° 0 mm 1 mps 738 mmHg 44%
    03:00 +28°C° 0 mm 1 mps 738 mmHg 45%
    04:00 +28°C° 0 mm 1 mps 738 mmHg 47%
    05:00 +27°C° 0 mm 1 mps 738 mmHg 49%
    06:00 +27°C° 0 mm 1 mps 739 mmHg 50%
    07:00 +30°C° 0 mm 1 mps 739 mmHg 44%
    08:00 +33°C° 0 mm 1 mps 739 mmHg 37%
    09:00 +34°C° 0 mm 0 mps 739 mmHg 31%
    10:00 +39°C° 0 mm 1 mps 739 mmHg 28%
    11:00 +40°C° 0 mm 2 mps 739 mmHg 25%
    12:00 +41°C° 0 mm 2 mps 739 mmHg 22%
    13:00 +43°C° 0 mm 3 mps 738 mmHg 20%
    14:00 +43°C° 0 mm 3 mps 738 mmHg 18%
    15:00 +43°C° 0 mm 3 mps 737 mmHg 17%
    16:00 +42°C° 0 mm 3 mps 737 mmHg 19%
    17:00 +40°C° 0 mm 3 mps 737 mmHg 20%
    18:00 +39°C° 0 mm 2 mps 737 mmHg 22%
    19:00 +37°C° 0 mm 2 mps 738 mmHg 27%
    20:00 +34°C° 0 mm 1 mps 738 mmHg 32%
    21:00 +32°C° 0 mm 1 mps 739 mmHg 37%
    22:00 +32°C° 0 mm 1 mps 739 mmHg 38%
    23:00 +31°C° 0 mm 1 mps 739 mmHg 40%

    Tomorrow, 4 June, Thursday

    Time Temperature Precipitation Wind Pressure Humidity
    00:00 +31°C° 0 mm 1 mps 739 mmHg 41%
    01:00 +31°C° 0 mm 1 mps 738 mmHg 41%
    02:00 +30°C° 0 mm 1 mps 738 mmHg 42%
    03:00 +30°C° 0 mm 1 mps 738 mmHg 42%
    04:00 +30°C° 0 mm 1 mps 738 mmHg 43%
    05:00 +30°C° 0 mm 1 mps 738 mmHg 44%
    06:00 +29°C° 0 mm 1 mps 738 mmHg 45%
    07:00 +31°C° 0 mm 1 mps 738 mmHg 42%
    08:00 +32°C° 0 mm 1 mps 739 mmHg 39%
    09:00 +34°C° 0 mm 1 mps 739 mmHg 36%
    10:00 +35°C° 0 mm 2 mps 739 mmHg 38%
    11:00 +35°C° 0 mm 3 mps 739 mmHg 40%
    12:00 +35°C° 0 mm 4 mps 739 mmHg 42%
    13:00 +35°C° 0 mm 5 mps 739 mmHg 41%
    14:00 +36°C° 0 mm 5 mps 738 mmHg 40%
    15:00 +36°C° 0 mm 5 mps 738 mmHg 38%
    16:00 +34°C° 0 mm 4 mps 738 mmHg 46%
    17:00 +31°C° 0 mm 3 mps 738 mmHg 54%
    18:00 +28°C° 0 mm 2 mps 737 mmHg 62%
    19:00 +28°C° 0 mm 2 mps 738 mmHg 65%
    20:00 +27°C° 0 mm 1 mps 738 mmHg 67%
    21:00 +27°C° 0 mm 1 mps 739 mmHg 70%
    22:00 +27°C° 0.1 mm 1 mps 739 mmHg 72%
    23:00 +27°C° 0.1 mm 1 mps 739 mmHg 74%

    Day after tomorrow, 5 June, Friday

    Time Temperature Precipitation Wind Pressure Humidity
    00:00 +27°C° 0.1 mm 1 mps 739 mmHg 76%
    01:00 +26°C° 0.7 mm 1 mps 739 mmHg 80%
    02:00 +25°C° 0.7 mm 1 mps 738 mmHg 85%
    03:00 +25°C° 0.7 mm 1 mps 738 mmHg 90%
    04:00 +25°C° 2.1 mm 2 mps 738 mmHg 90%
    05:00 +25°C° 2.1 mm 2 mps 738 mmHg 91%
    06:00 +25°C° 2.1 mm 3 mps 738 mmHg 92%
    07:00 +25°C° 0.8 mm 3 mps 738 mmHg 89%
    08:00 +26°C° 0.8 mm 3 mps 739 mmHg 86%
    09:00 +26°C° 0.8 mm 2 mps 739 mmHg 83%
    10:00 +28°C° 0.2 mm 2 mps 739 mmHg 77%
    11:00 +29°C° 0.2 mm 2 mps 739 mmHg 71%
    12:00 +30°C° 0.2 mm 2 mps 739 mmHg 65%
    13:00 +31°C° 0 mm 2 mps 738 mmHg 59%
    14:00 +34°C° 0 mm 2 mps 738 mmHg 53%
    15:00 +35°C° 0 mm 2 mps 737 mmHg 46%
    16:00 +34°C° 0 mm 1 mps 737 mmHg 49%
    17:00 +33°C° 0 mm 1 mps 737 mmHg 52%
    18:00 +32°C° 0 mm 1 mps 736 mmHg 54%
    19:00 +31°C° 0 mm 1 mps 737 mmHg 57%
    20:00 +30°C° 0 mm 1 mps 737 mmHg 61%
    21:00 +29°C° 0 mm 1 mps 738 mmHg 64%
    22:00 +29°C° 0 mm 1 mps 738 mmHg 65%
    23:00 +29°C° 0 mm 1 mps 738 mmHg 65%

    6 June, Saturday

    Time Temperature Precipitation Wind Pressure Humidity
    00:00 +28°C° 0 mm 1 mps 738 mmHg 66%
    01:00 +28°C° 0.2 mm 1 mps 737 mmHg 67%
    02:00 +28°C° 0.2 mm 1 mps 737 mmHg 68%
    03:00 +28°C° 0.2 mm 1 mps 737 mmHg 69%
    04:00 +28°C° 0.1 mm 1 mps 737 mmHg 71%
    05:00 +27°C° 0.1 mm 1 mps 737 mmHg 72%
    06:00 +27°C° 0.1 mm 1 mps 737 mmHg 74%
    07:00 +27°C° 0 mm 0 mps 737 mmHg 68%
    08:00 +29°C° 0 mm 0 mps 738 mmHg 62%
    09:00 +30°C° 0 mm 0 mps 738 mmHg 56%
    10:00 +33°C° 0 mm 0 mps 738 mmHg 49%
    11:00 +35°C° 0 mm 0 mps 738 mmHg 42%
    12:00 +38°C° 0 mm 0 mps 738 mmHg 34%
    13:00 +40°C° 0 mm 1 mps 737 mmHg 34%
    14:00 +40°C° 0 mm 1 mps 737 mmHg 34%
    15:00 +40°C° 0 mm 2 mps 736 mmHg 34%
    16:00 +39°C° 0 mm 2 mps 736 mmHg 36%
    17:00 +39°C° 0 mm 2 mps 736 mmHg 37%
    18:00 +38°C° 0 mm 3 mps 735 mmHg 39%
    19:00 +36°C° 0 mm 2 mps 736 mmHg 44%
    20:00 +35°C° 0 mm 2 mps 736 mmHg 48%
    21:00 +32°C° 0 mm 1 mps 737 mmHg 53%
    22:00 +31°C° 0 mm 1 mps 737 mmHg 56%
    23:00 +31°C° 0 mm 1 mps 737 mmHg 58%

    7 June, Sunday

    Time Temperature Precipitation Wind Pressure Humidity
    00:00 +30°C° 0 mm 1 mps 737 mmHg 61%
    01:00 +29°C° 0.1 mm 1 mps 737 mmHg 64%
    02:00 +29°C° 0.1 mm 1 mps 736 mmHg 67%
    03:00 +28°C° 0.1 mm 2 mps 736 mmHg 71%
    04:00 +28°C° 0.3 mm 2 mps 736 mmHg 73%
    05:00 +27°C° 0.3 mm 2 mps 737 mmHg 76%
    06:00 +27°C° 0.3 mm 2 mps 737 mmHg 79%
    07:00 +30°C° 0.1 mm 1 mps 737 mmHg 69%
    08:00 +32°C° 0.1 mm 1 mps 737 mmHg 60%
    09:00 +35°C° 0.1 mm 1 mps 737 mmHg 50%
    10:00 +37°C° 0 mm 1 mps 737 mmHg 44%
    11:00 +40°C° 0 mm 1 mps 737 mmHg 38%
    12:00 +42°C° 0 mm 2 mps 737 mmHg 32%
    13:00 +42°C° 0 mm 2 mps 736 mmHg 31%
    14:00 +42°C° 0 mm 2 mps 736 mmHg 30%
    15:00 +42°C° 0 mm 2 mps 735 mmHg 29%
    16:00 +42°C° 0 mm 2 mps 735 mmHg 30%
    17:00 +41°C° 0 mm 2 mps 734 mmHg 31%
    18:00 +40°C° 0 mm 1 mps 734 mmHg 32%
    19:00 +37°C° 0 mm 1 mps 735 mmHg 37%
    20:00 +36°C° 0 mm 1 mps 735 mmHg 43%
    21:00 +34°C° 0 mm 1 mps 735 mmHg 48%
    22:00 +32°C° 0 mm 1 mps 735 mmHg 54%
    23:00 +31°C° 0 mm 2 mps 735 mmHg 59%

    8 June, Monday

    Time Temperature Precipitation Wind Pressure Humidity
    00:00 +30°C° 0 mm 2 mps 735 mmHg 65%
    01:00 +30°C° 0 mm 2 mps 735 mmHg 66%
    02:00 +29°C° 0 mm 2 mps 735 mmHg 67%
    03:00 +29°C° 0 mm 2 mps 735 mmHg 69%
    04:00 +29°C° 0 mm 2 mps 735 mmHg 69%
    05:00 +29°C° 0 mm 2 mps 735 mmHg 69%
    06:00 +29°C° 0 mm 2 mps 735 mmHg 69%
    07:00 +32°C° 0 mm 1 mps 735 mmHg 59%
    08:00 +35°C° 0 mm 1 mps 735 mmHg 49%
    09:00 +39°C° 0 mm 1 mps 736 mmHg 39%
    10:00 +41°C° 0 mm 1 mps 735 mmHg 34%
    11:00 +43°C° 0 mm 1 mps 735 mmHg 29%
    12:00 +45°C° 0 mm 1 mps 735 mmHg 24%
    13:00 +46°C° 0 mm 2 mps 734 mmHg 24%
    14:00 +45°C° 0 mm 2 mps 734 mmHg 23%
    15:00 +45°C° 0 mm 3 mps 733 mmHg 23%
    16:00 +44°C° 0 mm 3 mps 733 mmHg 24%
    17:00 +43°C° 0 mm 2 mps 733 mmHg 26%
    18:00 +42°C° 0 mm 2 mps 732 mmHg 27%
    19:00 +40°C° 0 mm 1 mps 733 mmHg 31%
    20:00 +37°C° 0 mm 1 mps 733 mmHg 34%
    21:00 +35°C° 0 mm 1 mps 734 mmHg 38%
    22:00 +34°C° 0 mm 1 mps 734 mmHg 41%
    23:00 +34°C° 0 mm 1 mps 734 mmHg 45%
    Show more